Year,Month,Day,Hour,Minute,Value (Times are PST for insolation in W/m^2)
2007,07,25,00,00,0.00
2007,07,25,00,01,0.00
2007,07,25,00,02,0.00
2007,07,25,00,03,0.00
2007,07,25,00,04,0.00
2007,07,25,00,05,0.00
2007,07,25,00,06,0.00
2007,07,25,00,07,0.00
2007,07,25,00,08,0.00
2007,07,25,00,09,0.00
2007,07,25,00,10,0.00
2007,07,25,00,11,0.00
2007,07,25,00,12,0.00
2007,07,25,00,13,0.00
2007,07,25,00,14,0.00
2007,07,25,00,15,0.00
2007,07,25,00,16,0.00
2007,07,25,00,17,0.00
2007,07,25,00,18,0.00
2007,07,25,00,19,0.00
2007,07,25,00,20,0.00
2007,07,25,00,21,0.00
2007,07,25,00,22,0.00
2007,07,25,00,23,0.00
2007,07,25,00,24,0.00
2007,07,25,00,25,0.00
2007,07,25,00,26,0.00
2007,07,25,00,27,0.00
2007,07,25,00,28,0.00
2007,07,25,00,29,0.00
2007,07,25,00,30,0.00
2007,07,25,00,31,0.00
2007,07,25,00,32,0.00
2007,07,25,00,33,0.00
2007,07,25,00,34,0.00
2007,07,25,00,35,0.00
2007,07,25,00,36,0.00
2007,07,25,00,37,0.00
2007,07,25,00,38,0.00
2007,07,25,00,39,0.00
2007,07,25,00,40,0.00
2007,07,25,00,41,0.00
2007,07,25,00,42,0.00
2007,07,25,00,43,0.00
2007,07,25,00,44,0.00
2007,07,25,00,45,0.00
2007,07,25,00,46,0.00
2007,07,25,00,47,0.00
2007,07,25,00,48,0.00
2007,07,25,00,49,0.00
2007,07,25,00,50,0.00
2007,07,25,00,51,0.00
2007,07,25,00,52,0.00
2007,07,25,00,53,0.00
2007,07,25,00,54,0.00
2007,07,25,00,55,0.00
2007,07,25,00,56,0.00
2007,07,25,00,57,0.00
2007,07,25,00,58,0.00
2007,07,25,00,59,0.00
2007,07,25,01,00,0.00
2007,07,25,01,01,0.00
2007,07,25,01,02,0.00
2007,07,25,01,03,0.00
2007,07,25,01,04,0.00
2007,07,25,01,05,0.00
2007,07,25,01,06,0.00
2007,07,25,01,07,0.00
2007,07,25,01,08,0.00
2007,07,25,01,09,0.00
2007,07,25,01,10,0.00
2007,07,25,01,11,0.00
2007,07,25,01,12,0.00
2007,07,25,01,13,0.00
2007,07,25,01,14,0.00
2007,07,25,01,15,0.00
2007,07,25,01,16,0.00
2007,07,25,01,17,0.00
2007,07,25,01,18,0.00
2007,07,25,01,19,0.00
2007,07,25,01,20,0.00
2007,07,25,01,21,0.00
2007,07,25,01,22,0.00
2007,07,25,01,23,0.00
2007,07,25,01,24,0.00
2007,07,25,01,25,0.00
2007,07,25,01,26,0.00
2007,07,25,01,27,0.00
2007,07,25,01,28,0.00
2007,07,25,01,29,0.00
2007,07,25,01,30,0.00
2007,07,25,01,31,0.00
2007,07,25,01,32,0.00
2007,07,25,01,33,0.00
2007,07,25,01,34,0.00
2007,07,25,01,35,0.00
2007,07,25,01,36,0.00
2007,07,25,01,37,0.00
2007,07,25,01,38,0.00
2007,07,25,01,39,0.00
2007,07,25,01,40,0.00
2007,07,25,01,41,0.00
2007,07,25,01,42,0.00
2007,07,25,01,43,0.00
2007,07,25,01,44,0.00
2007,07,25,01,45,0.00
2007,07,25,01,46,0.00
2007,07,25,01,47,0.00
2007,07,25,01,48,0.00
2007,07,25,01,49,0.00
2007,07,25,01,50,0.00
2007,07,25,01,51,0.00
2007,07,25,01,52,0.00
2007,07,25,01,53,0.00
2007,07,25,01,54,0.00
2007,07,25,01,55,0.00
2007,07,25,01,56,0.00
2007,07,25,01,57,0.00
2007,07,25,01,58,0.00
2007,07,25,01,59,0.00
2007,07,25,02,00,0.00
2007,07,25,02,01,0.00
2007,07,25,02,02,0.00
2007,07,25,02,03,0.00
2007,07,25,02,04,0.00
2007,07,25,02,05,0.00
2007,07,25,02,06,0.00
2007,07,25,02,07,0.00
2007,07,25,02,08,0.00
2007,07,25,02,09,0.00
2007,07,25,02,10,0.00
2007,07,25,02,11,0.00
2007,07,25,02,12,0.00
2007,07,25,02,13,0.00
2007,07,25,02,14,0.00
2007,07,25,02,15,0.00
2007,07,25,02,16,0.00
2007,07,25,02,17,0.00
2007,07,25,02,18,0.00
2007,07,25,02,19,0.00
2007,07,25,02,20,0.00
2007,07,25,02,21,0.00
2007,07,25,02,22,0.00
2007,07,25,02,23,0.00
2007,07,25,02,24,0.00
2007,07,25,02,25,0.00
2007,07,25,02,26,0.00
2007,07,25,02,27,0.00
2007,07,25,02,28,0.00
2007,07,25,02,29,0.00
2007,07,25,02,30,0.00
2007,07,25,02,31,0.00
2007,07,25,02,32,0.00
2007,07,25,02,33,0.00
2007,07,25,02,34,0.00
2007,07,25,02,35,0.00
2007,07,25,02,36,0.00
2007,07,25,02,37,0.00
2007,07,25,02,38,0.00
2007,07,25,02,39,0.00
2007,07,25,02,40,0.00
2007,07,25,02,41,0.00
2007,07,25,02,42,0.00
2007,07,25,02,43,0.00
2007,07,25,02,44,0.00
2007,07,25,02,45,0.00
2007,07,25,02,46,0.00
2007,07,25,02,47,0.00
2007,07,25,02,48,0.00
2007,07,25,02,49,0.00
2007,07,25,02,50,0.00
2007,07,25,02,51,0.00
2007,07,25,02,52,0.00
2007,07,25,02,53,0.00
2007,07,25,02,54,0.00
2007,07,25,02,55,0.00
2007,07,25,02,56,0.00
2007,07,25,02,57,0.00
2007,07,25,02,58,0.00
2007,07,25,02,59,0.00
2007,07,25,03,00,0.00
2007,07,25,03,01,0.00
2007,07,25,03,02,0.00
2007,07,25,03,03,0.00
2007,07,25,03,04,0.00
2007,07,25,03,05,0.00
2007,07,25,03,06,0.00
2007,07,25,03,07,0.00
2007,07,25,03,08,0.00
2007,07,25,03,09,0.00
2007,07,25,03,10,0.00
2007,07,25,03,11,0.00
2007,07,25,03,12,0.00
2007,07,25,03,13,0.00
2007,07,25,03,14,0.00
2007,07,25,03,15,0.00
2007,07,25,03,16,0.00
2007,07,25,03,17,0.00
2007,07,25,03,18,0.00
2007,07,25,03,19,0.00
2007,07,25,03,20,0.00
2007,07,25,03,21,0.00
2007,07,25,03,22,0.00
2007,07,25,03,23,0.00
2007,07,25,03,24,0.00
2007,07,25,03,25,0.00
2007,07,25,03,26,0.00
2007,07,25,03,27,0.00
2007,07,25,03,28,0.00
2007,07,25,03,29,0.00
2007,07,25,03,30,0.00
2007,07,25,03,31,0.00
2007,07,25,03,32,0.00
2007,07,25,03,33,0.00
2007,07,25,03,34,0.00
2007,07,25,03,35,0.00
2007,07,25,03,36,0.00
2007,07,25,03,37,0.00
2007,07,25,03,38,0.00
2007,07,25,03,39,0.00
2007,07,25,03,40,0.00
2007,07,25,03,41,0.00
2007,07,25,03,42,0.00
2007,07,25,03,43,0.00
2007,07,25,03,44,0.00
2007,07,25,03,45,0.00
2007,07,25,03,46,0.00
2007,07,25,03,47,0.00
2007,07,25,03,48,0.00
2007,07,25,03,49,0.00
2007,07,25,03,50,0.00
2007,07,25,03,51,0.00
2007,07,25,03,52,0.00
2007,07,25,03,53,0.00
2007,07,25,03,54,0.00
2007,07,25,03,55,0.00
2007,07,25,03,56,0.00
2007,07,25,03,57,0.00
2007,07,25,03,58,0.00
2007,07,25,03,59,0.00
2007,07,25,04,00,0.00
2007,07,25,04,01,0.00
2007,07,25,04,02,0.00
2007,07,25,04,03,0.00
2007,07,25,04,04,0.00
2007,07,25,04,05,0.00
2007,07,25,04,06,0.00
2007,07,25,04,07,0.00
2007,07,25,04,08,0.00
2007,07,25,04,09,0.00
2007,07,25,04,10,0.00
2007,07,25,04,11,0.00
2007,07,25,04,12,0.00
2007,07,25,04,13,0.00
2007,07,25,04,14,0.00
2007,07,25,04,15,0.00
2007,07,25,04,16,0.00
2007,07,25,04,17,0.00
2007,07,25,04,18,0.00
2007,07,25,04,19,0.00
2007,07,25,04,20,0.00
2007,07,25,04,21,0.00
2007,07,25,04,22,0.00
2007,07,25,04,23,0.00
2007,07,25,04,24,0.00
2007,07,25,04,25,0.00
2007,07,25,04,26,0.00
2007,07,25,04,27,0.00
2007,07,25,04,28,0.00
2007,07,25,04,29,0.00
2007,07,25,04,30,0.00
2007,07,25,04,31,0.00
2007,07,25,04,32,0.00
2007,07,25,04,33,0.00
2007,07,25,04,34,0.00
2007,07,25,04,35,0.00
2007,07,25,04,36,0.00
2007,07,25,04,37,0.00
2007,07,25,04,38,0.00
2007,07,25,04,39,0.00
2007,07,25,04,40,0.00
2007,07,25,04,41,0.00
2007,07,25,04,42,0.00
2007,07,25,04,43,0.00
2007,07,25,04,44,0.00
2007,07,25,04,45,0.00
2007,07,25,04,46,0.00
2007,07,25,04,47,0.00
2007,07,25,04,48,0.00
2007,07,25,04,49,0.00
2007,07,25,04,50,0.00
2007,07,25,04,51,0.00
2007,07,25,04,52,0.00
2007,07,25,04,53,0.00
2007,07,25,04,54,0.00
2007,07,25,04,55,0.00
2007,07,25,04,56,0.00
2007,07,25,04,57,0.00
2007,07,25,04,58,0.00
2007,07,25,04,59,0.00
2007,07,25,05,00,0.00
2007,07,25,05,01,0.00
2007,07,25,05,02,0.00
2007,07,25,05,03,0.00
2007,07,25,05,04,0.00
2007,07,25,05,05,0.00
2007,07,25,05,06,0.00
2007,07,25,05,07,0.00
2007,07,25,05,08,0.00
2007,07,25,05,09,0.00
2007,07,25,05,10,0.00
2007,07,25,05,11,0.00
2007,07,25,05,12,0.00
2007,07,25,05,13,0.00
2007,07,25,05,14,0.00
2007,07,25,05,15,0.00
2007,07,25,05,16,0.00
2007,07,25,05,17,0.00
2007,07,25,05,18,0.00
2007,07,25,05,19,0.00
2007,07,25,05,20,0.00
2007,07,25,05,21,0.00
2007,07,25,05,22,0.00
2007,07,25,05,23,0.00
2007,07,25,05,24,0.00
2007,07,25,05,25,0.00
2007,07,25,05,26,0.00
2007,07,25,05,27,0.00
2007,07,25,05,28,0.00
2007,07,25,05,29,0.00
2007,07,25,05,30,0.00
2007,07,25,05,31,0.00
2007,07,25,05,32,0.00
2007,07,25,05,33,0.00
2007,07,25,05,34,0.00
2007,07,25,05,35,0.00
2007,07,25,05,36,0.00
2007,07,25,05,37,0.00
2007,07,25,05,38,0.00
2007,07,25,05,39,0.00
2007,07,25,05,40,0.00
2007,07,25,05,41,0.00
2007,07,25,05,42,0.00
2007,07,25,05,43,0.00
2007,07,25,05,44,0.00
2007,07,25,05,45,0.00
2007,07,25,05,46,0.00
2007,07,25,05,47,0.00
2007,07,25,05,48,4.70
2007,07,25,05,49,5.00
2007,07,25,05,50,5.00
2007,07,25,05,51,5.00
2007,07,25,05,52,5.00
2007,07,25,05,53,5.00
2007,07,25,05,54,6.10
2007,07,25,05,55,7.00
2007,07,25,05,56,7.00
2007,07,25,05,57,7.00
2007,07,25,05,58,7.00
2007,07,25,05,59,7.00
2007,07,25,06,00,7.60
2007,07,25,06,01,9.00
2007,07,25,06,02,9.00
2007,07,25,06,03,9.00
2007,07,25,06,04,9.00
2007,07,25,06,05,9.00
2007,07,25,06,06,9.10
2007,07,25,06,07,11.00
2007,07,25,06,08,11.00
2007,07,25,06,09,11.00
2007,07,25,06,10,11.00
2007,07,25,06,11,11.00
2007,07,25,06,12,11.00
2007,07,25,06,13,11.80
2007,07,25,06,14,12.00
2007,07,25,06,15,12.00
2007,07,25,06,16,12.00
2007,07,25,06,17,12.00
2007,07,25,06,18,12.00
2007,07,25,06,19,12.00
2007,07,25,06,20,13.30
2007,07,25,06,21,14.00
2007,07,25,06,22,14.00
2007,07,25,06,23,14.00
2007,07,25,06,24,14.00
2007,07,25,06,25,14.00
2007,07,25,06,26,14.00
2007,07,25,06,27,14.90
2007,07,25,06,28,16.00
2007,07,25,06,29,16.00
2007,07,25,06,30,16.00
2007,07,25,06,31,16.00
2007,07,25,06,32,16.00
2007,07,25,06,33,16.00
2007,07,25,06,34,16.60
2007,07,25,06,35,18.00
2007,07,25,06,36,18.00
2007,07,25,06,37,18.00
2007,07,25,06,38,18.00
2007,07,25,06,39,18.00
2007,07,25,06,40,18.00
2007,07,25,06,41,18.00
2007,07,25,06,42,18.20
2007,07,25,06,43,19.00
2007,07,25,06,44,19.00
2007,07,25,06,45,19.00
2007,07,25,06,46,19.00
2007,07,25,06,47,19.00
2007,07,25,06,48,19.00
2007,07,25,06,49,19.00
2007,07,25,06,50,19.20
2007,07,25,06,51,21.00
2007,07,25,06,52,21.00
2007,07,25,06,53,21.00
2007,07,25,06,54,21.00
2007,07,25,06,55,21.00
2007,07,25,06,56,21.00
2007,07,25,06,57,21.00
2007,07,25,06,58,21.00
2007,07,25,06,59,21.00
2007,07,25,07,00,21.00
2007,07,25,07,01,21.80
2007,07,25,07,02,23.00
2007,07,25,07,03,23.00
2007,07,25,07,04,24.60
2007,07,25,07,05,25.00
2007,07,25,07,06,23.30
2007,07,25,07,07,23.30
2007,07,25,07,08,25.00
2007,07,25,07,09,25.00
2007,07,25,07,10,25.00
2007,07,25,07,11,23.90
2007,07,25,07,12,24.20
2007,07,25,07,13,25.00
2007,07,25,07,14,25.00
2007,07,25,07,15,25.00
2007,07,25,07,16,25.00
2007,07,25,07,17,25.00
2007,07,25,07,18,25.00
2007,07,25,07,19,25.00
2007,07,25,07,20,25.00
2007,07,25,07,21,25.00
2007,07,25,07,22,27.50
2007,07,25,07,23,26.30
2007,07,25,07,24,26.00
2007,07,25,07,25,26.00
2007,07,25,07,26,26.00
2007,07,25,07,27,26.00
2007,07,25,07,28,26.00
2007,07,25,07,29,26.00
2007,07,25,07,30,26.00
2007,07,25,07,31,26.00
2007,07,25,07,32,26.00
2007,07,25,07,33,26.00
2007,07,25,07,34,26.00
2007,07,25,07,35,26.00
2007,07,25,07,36,26.00
2007,07,25,07,37,26.00
2007,07,25,07,38,27.40
2007,07,25,07,39,28.00
2007,07,25,07,40,28.00
2007,07,25,07,41,28.00
2007,07,25,07,42,28.00
2007,07,25,07,43,28.00
2007,07,25,07,44,28.00
2007,07,25,07,45,28.00
2007,07,25,07,46,28.00
2007,07,25,07,47,29.40
2007,07,25,07,48,30.00
2007,07,25,07,49,30.00
2007,07,25,07,50,30.00
2007,07,25,07,51,30.00
2007,07,25,07,52,30.00
2007,07,25,07,53,30.00
2007,07,25,07,54,30.00
2007,07,25,07,55,32.20
2007,07,25,07,56,34.60
2007,07,25,07,57,31.00
2007,07,25,07,58,31.90
2007,07,25,07,59,30.30
2007,07,25,08,00,32.00
2007,07,25,08,01,33.00
2007,07,25,08,02,36.20
2007,07,25,08,03,34.60
2007,07,25,08,04,32.20
2007,07,25,08,05,32.00
2007,07,25,08,06,32.00
2007,07,25,08,07,31.80
2007,07,25,08,08,30.00
2007,07,25,08,09,30.00
2007,07,25,08,10,30.00
2007,07,25,08,11,30.00
2007,07,25,08,12,30.00
2007,07,25,08,13,30.00
2007,07,25,08,14,30.00
2007,07,25,08,15,30.00
2007,07,25,08,16,30.00
2007,07,25,08,17,30.00
2007,07,25,08,18,30.00
2007,07,25,08,19,30.00
2007,07,25,08,20,30.00
2007,07,25,08,21,31.20
2007,07,25,08,22,32.00
2007,07,25,08,23,32.00
2007,07,25,08,24,32.00
2007,07,25,08,25,32.00
2007,07,25,08,26,32.00
2007,07,25,08,27,32.00
2007,07,25,08,28,32.00
2007,07,25,08,29,32.60
2007,07,25,08,30,34.30
2007,07,25,08,31,33.20
2007,07,25,08,32,33.00
2007,07,25,08,33,32.10
2007,07,25,08,34,32.80
2007,07,25,08,35,32.00
2007,07,25,08,36,32.50
2007,07,25,08,37,36.90
2007,07,25,08,38,64.60
2007,07,25,08,39,83.30
2007,07,25,08,40,114.30
2007,07,25,08,41,100.40
2007,07,25,08,42,41.80
2007,07,25,08,43,47.70
2007,07,25,08,44,37.60
2007,07,25,08,45,34.00
2007,07,25,08,46,34.10
2007,07,25,08,47,35.00
2007,07,25,08,48,36.50
2007,07,25,08,49,35.20
2007,07,25,08,50,35.20
2007,07,25,08,51,37.00
2007,07,25,08,52,37.00
2007,07,25,08,53,37.00
2007,07,25,08,54,38.10
2007,07,25,08,55,39.00
2007,07,25,08,56,39.80
2007,07,25,08,57,46.20
2007,07,25,08,58,62.30
2007,07,25,08,59,110.20
2007,07,25,09,00,171.30
2007,07,25,09,01,138.90
2007,07,25,09,02,90.20
2007,07,25,09,03,74.80
2007,07,25,09,04,78.80
2007,07,25,09,05,59.00
2007,07,25,09,06,64.30
2007,07,25,09,07,84.40
2007,07,25,09,08,84.80
2007,07,25,09,09,49.30
2007,07,25,09,10,40.90
2007,07,25,09,11,43.00
2007,07,25,09,12,48.30
2007,07,25,09,13,56.40
2007,07,25,09,14,58.00
2007,07,25,09,15,53.00
2007,07,25,09,16,51.90
2007,07,25,09,17,45.00
2007,07,25,09,18,48.00
2007,07,25,09,19,46.40
2007,07,25,09,20,58.00
2007,07,25,09,21,58.50
2007,07,25,09,22,54.30
2007,07,25,09,23,62.90
2007,07,25,09,24,97.70
2007,07,25,09,25,104.30
2007,07,25,09,26,79.00
2007,07,25,09,27,82.80
2007,07,25,09,28,86.80
2007,07,25,09,29,73.20
2007,07,25,09,30,60.50
2007,07,25,09,31,65.50
2007,07,25,09,32,83.10
2007,07,25,09,33,59.90
2007,07,25,09,34,59.00
2007,07,25,09,35,86.60
2007,07,25,09,36,178.30
2007,07,25,09,37,245.00
2007,07,25,09,38,314.00
2007,07,25,09,39,352.80
2007,07,25,09,40,408.10
2007,07,25,09,41,450.00
2007,07,25,09,42,504.80
2007,07,25,09,43,506.10
2007,07,25,09,44,531.50
2007,07,25,09,45,530.00
2007,07,25,09,46,524.00
2007,07,25,09,47,524.00
2007,07,25,09,48,160.70
2007,07,25,09,49,74.80
2007,07,25,09,50,60.40
2007,07,25,09,51,65.50
2007,07,25,09,52,58.00
2007,07,25,09,53,65.00
2007,07,25,09,54,83.40
2007,07,25,09,55,81.40
2007,07,25,09,56,59.90
2007,07,25,09,57,91.20
2007,07,25,09,58,104.00
2007,07,25,09,59,104.00
2007,07,25,10,00,205.80
2007,07,25,10,01,612.70
2007,07,25,10,02,614.60
2007,07,25,10,03,618.20
2007,07,25,10,04,617.80
2007,07,25,10,05,620.30
2007,07,25,10,06,621.90
2007,07,25,10,07,627.90
2007,07,25,10,08,625.30
2007,07,25,10,09,624.50
2007,07,25,10,10,633.70
2007,07,25,10,11,640.00
2007,07,25,10,12,643.80
2007,07,25,10,13,647.90
2007,07,25,10,14,649.80
2007,07,25,10,15,653.80
2007,07,25,10,16,657.50
2007,07,25,10,17,663.20
2007,07,25,10,18,664.00
2007,07,25,10,19,661.80
2007,07,25,10,20,655.10
2007,07,25,10,21,644.00
2007,07,25,10,22,642.30
2007,07,25,10,23,615.40
2007,07,25,10,24,635.50
2007,07,25,10,25,639.30
2007,07,25,10,26,633.20
2007,07,25,10,27,628.50
2007,07,25,10,28,630.40
2007,07,25,10,29,635.30
2007,07,25,10,30,623.10
2007,07,25,10,31,632.00
2007,07,25,10,32,629.00
2007,07,25,10,33,635.20
2007,07,25,10,34,633.00
2007,07,25,10,35,649.50
2007,07,25,10,36,663.60
2007,07,25,10,37,677.50
2007,07,25,10,38,680.00
2007,07,25,10,39,682.90
2007,07,25,10,40,690.20
2007,07,25,10,41,697.30
2007,07,25,10,42,696.40
2007,07,25,10,43,700.20
2007,07,25,10,44,701.70
2007,07,25,10,45,703.90
2007,07,25,10,46,706.00
2007,07,25,10,47,707.70
2007,07,25,10,48,709.60
2007,07,25,10,49,713.20
2007,07,25,10,50,716.70
2007,07,25,10,51,717.60
2007,07,25,10,52,720.50
2007,07,25,10,53,716.90
2007,07,25,10,54,715.50
2007,07,25,10,55,718.20
2007,07,25,10,56,715.40
2007,07,25,10,57,714.00
2007,07,25,10,58,714.00
2007,07,25,10,59,726.60
2007,07,25,11,00,731.40
2007,07,25,11,01,733.70
2007,07,25,11,02,735.90
2007,07,25,11,03,737.60
2007,07,25,11,04,738.00
2007,07,25,11,05,739.60
2007,07,25,11,06,741.80
2007,07,25,11,07,744.00
2007,07,25,11,08,747.00
2007,07,25,11,09,746.40
2007,07,25,11,10,746.30
2007,07,25,11,11,750.50
2007,07,25,11,12,752.00
2007,07,25,11,13,747.50
2007,07,25,11,14,737.50
2007,07,25,11,15,754.80
2007,07,25,11,16,756.10
2007,07,25,11,17,758.00
2007,07,25,11,18,759.00
2007,07,25,11,19,761.00
2007,07,25,11,20,761.90
2007,07,25,11,21,763.00
2007,07,25,11,22,763.00
2007,07,25,11,23,765.40
2007,07,25,11,24,768.00
2007,07,25,11,25,765.60
2007,07,25,11,26,770.00
2007,07,25,11,27,771.10
2007,07,25,11,28,773.00
2007,07,25,11,29,774.20
2007,07,25,11,30,776.40
2007,07,25,11,31,778.50
2007,07,25,11,32,781.80
2007,07,25,11,33,770.90
2007,07,25,11,34,786.00
2007,07,25,11,35,785.40
2007,07,25,11,36,786.70
2007,07,25,11,37,791.00
2007,07,25,11,38,792.30
2007,07,25,11,39,793.00
2007,07,25,11,40,793.00
2007,07,25,11,41,795.80
2007,07,25,11,42,798.10
2007,07,25,11,43,800.00
2007,07,25,11,44,800.00
2007,07,25,11,45,801.00
2007,07,25,11,46,803.00
2007,07,25,11,47,805.70
2007,07,25,11,48,805.40
2007,07,25,11,49,806.80
2007,07,25,11,50,803.40
2007,07,25,11,51,801.10
2007,07,25,11,52,796.50
2007,07,25,11,53,799.90
2007,07,25,11,54,805.00
2007,07,25,11,55,807.00
2007,07,25,11,56,814.40
2007,07,25,11,57,818.70
2007,07,25,11,58,816.20
2007,07,25,11,59,819.20
2007,07,25,12,00,823.00
2007,07,25,12,01,823.30
2007,07,25,12,02,822.60
2007,07,25,12,03,824.90
2007,07,25,12,04,828.00
2007,07,25,12,05,831.80
2007,07,25,12,06,836.20
2007,07,25,12,07,841.50
2007,07,25,12,08,847.00
2007,07,25,12,09,846.40
2007,07,25,12,10,846.10
2007,07,25,12,11,848.50
2007,07,25,12,12,846.00
2007,07,25,12,13,803.60
2007,07,25,12,14,784.00
2007,07,25,12,15,800.10
2007,07,25,12,16,812.10
2007,07,25,12,17,814.00
2007,07,25,12,18,808.20
2007,07,25,12,19,793.00
2007,07,25,12,20,805.00
2007,07,25,12,21,821.30
2007,07,25,12,22,845.70
2007,07,25,12,23,854.00
2007,07,25,12,24,855.70
2007,07,25,12,25,853.90
2007,07,25,12,26,851.70
2007,07,25,12,27,846.70
2007,07,25,12,28,845.10
2007,07,25,12,29,846.80
2007,07,25,12,30,847.80
2007,07,25,12,31,846.30
2007,07,25,12,32,850.40
2007,07,25,12,33,852.80
2007,07,25,12,34,856.00
2007,07,25,12,35,856.00
2007,07,25,12,36,856.00
2007,07,25,12,37,855.10
2007,07,25,12,38,854.00
2007,07,25,12,39,848.20
2007,07,25,12,40,846.80
2007,07,25,12,41,844.20
2007,07,25,12,42,846.70
2007,07,25,12,43,842.00
2007,07,25,12,44,842.00
2007,07,25,12,45,834.00
2007,07,25,12,46,822.50
2007,07,25,12,47,829.40
2007,07,25,12,48,843.60
2007,07,25,12,49,846.00
2007,07,25,12,50,848.80
2007,07,25,12,51,849.20
2007,07,25,12,52,851.00
2007,07,25,12,53,851.00
2007,07,25,12,54,851.00
2007,07,25,12,55,852.00
2007,07,25,12,56,853.70
2007,07,25,12,57,857.30
2007,07,25,12,58,858.00
2007,07,25,12,59,857.70
2007,07,25,13,00,853.80
2007,07,25,13,01,857.40
2007,07,25,13,02,856.70
2007,07,25,13,03,859.10
2007,07,25,13,04,860.60
2007,07,25,13,05,861.00
2007,07,25,13,06,860.20
2007,07,25,13,07,860.00
2007,07,25,13,08,862.80
2007,07,25,13,09,861.40
2007,07,25,13,10,862.40
2007,07,25,13,11,860.60
2007,07,25,13,12,861.70
2007,07,25,13,13,866.30
2007,07,25,13,14,864.10
2007,07,25,13,15,867.00
2007,07,25,13,16,836.80
2007,07,25,13,17,867.00
2007,07,25,13,18,867.00
2007,07,25,13,19,866.20
2007,07,25,13,20,865.00
2007,07,25,13,21,865.00
2007,07,25,13,22,866.40
2007,07,25,13,23,867.00
2007,07,25,13,24,867.90
2007,07,25,13,25,867.00
2007,07,25,13,26,865.30
2007,07,25,13,27,867.30
2007,07,25,13,28,867.70
2007,07,25,13,29,866.00
2007,07,25,13,30,866.10
2007,07,25,13,31,867.70
2007,07,25,13,32,867.10
2007,07,25,13,33,867.90
2007,07,25,13,34,869.70
2007,07,25,13,35,867.00
2007,07,25,13,36,867.90
2007,07,25,13,37,869.10
2007,07,25,13,38,866.50
2007,07,25,13,39,866.30
2007,07,25,13,40,861.80
2007,07,25,13,41,866.00
2007,07,25,13,42,868.00
2007,07,25,13,43,868.00
2007,07,25,13,44,867.20
2007,07,25,13,45,864.20
2007,07,25,13,46,865.00
2007,07,25,13,47,867.00
2007,07,25,13,48,838.40
2007,07,25,13,49,842.20
2007,07,25,13,50,865.80
2007,07,25,13,51,866.90
2007,07,25,13,52,864.60
2007,07,25,13,53,864.30
2007,07,25,13,54,867.40
2007,07,25,13,55,868.00
2007,07,25,13,56,867.40
2007,07,25,13,57,865.40
2007,07,25,13,58,865.00
2007,07,25,13,59,863.00
2007,07,25,14,00,863.30
2007,07,25,14,01,865.60
2007,07,25,14,02,865.40
2007,07,25,14,03,864.10
2007,07,25,14,04,862.10
2007,07,25,14,05,860.70
2007,07,25,14,06,864.00
2007,07,25,14,07,865.00
2007,07,25,14,08,860.00
2007,07,25,14,09,860.00
2007,07,25,14,10,860.00
2007,07,25,14,11,860.00
2007,07,25,14,12,860.00
2007,07,25,14,13,860.00
2007,07,25,14,14,860.00
2007,07,25,14,15,856.80
2007,07,25,14,16,857.80
2007,07,25,14,17,855.80
2007,07,25,14,18,854.00
2007,07,25,14,19,854.00
2007,07,25,14,20,854.00
2007,07,25,14,21,854.00
2007,07,25,14,22,854.00
2007,07,25,14,23,840.60
2007,07,25,14,24,848.30
2007,07,25,14,25,853.50
2007,07,25,14,26,853.80
2007,07,25,14,27,853.00
2007,07,25,14,28,853.00
2007,07,25,14,29,850.90
2007,07,25,14,30,847.70
2007,07,25,14,31,848.50
2007,07,25,14,32,846.50
2007,07,25,14,33,846.00
2007,07,25,14,34,842.20
2007,07,25,14,35,843.60
2007,07,25,14,36,842.00
2007,07,25,14,37,841.10
2007,07,25,14,38,840.00
2007,07,25,14,39,840.00
2007,07,25,14,40,838.40
2007,07,25,14,41,839.80
2007,07,25,14,42,840.10
2007,07,25,14,43,842.00
2007,07,25,14,44,841.40
2007,07,25,14,45,840.70
2007,07,25,14,46,838.80
2007,07,25,14,47,830.00
2007,07,25,14,48,823.90
2007,07,25,14,49,794.40
2007,07,25,14,50,773.90
2007,07,25,14,51,779.90
2007,07,25,14,52,801.70
2007,07,25,14,53,801.50
2007,07,25,14,54,821.00
2007,07,25,14,55,823.80
2007,07,25,14,56,822.70
2007,07,25,14,57,822.40
2007,07,25,14,58,823.00
2007,07,25,14,59,821.00
2007,07,25,15,00,817.00
2007,07,25,15,01,817.40
2007,07,25,15,02,817.80
2007,07,25,15,03,815.10
2007,07,25,15,04,814.00
2007,07,25,15,05,814.00
2007,07,25,15,06,810.80
2007,07,25,15,07,807.20
2007,07,25,15,08,807.00
2007,07,25,15,09,806.70
2007,07,25,15,10,804.40
2007,07,25,15,11,803.00
2007,07,25,15,12,802.50
2007,07,25,15,13,802.00
2007,07,25,15,14,799.10
2007,07,25,15,15,798.00
2007,07,25,15,16,796.10
2007,07,25,15,17,796.20
2007,07,25,15,18,797.30
2007,07,25,15,19,793.80
2007,07,25,15,20,790.10
2007,07,25,15,21,789.00
2007,07,25,15,22,788.30
2007,07,25,15,23,786.40
2007,07,25,15,24,786.00
2007,07,25,15,25,784.00
2007,07,25,15,26,782.00
2007,07,25,15,27,782.00
2007,07,25,15,28,780.90
2007,07,25,15,29,779.00
2007,07,25,15,30,777.80
2007,07,25,15,31,774.10
2007,07,25,15,32,772.20
2007,07,25,15,33,772.90
2007,07,25,15,34,770.00
2007,07,25,15,35,769.70
2007,07,25,15,36,768.00
2007,07,25,15,37,767.10
2007,07,25,15,38,766.00
2007,07,25,15,39,766.00
2007,07,25,15,40,762.10
2007,07,25,15,41,762.80
2007,07,25,15,42,761.20
2007,07,25,15,43,758.20
2007,07,25,15,44,735.20
2007,07,25,15,45,689.00
2007,07,25,15,46,707.00
2007,07,25,15,47,738.20
2007,07,25,15,48,756.60
2007,07,25,15,49,752.70
2007,07,25,15,50,751.20
2007,07,25,15,51,746.90
2007,07,25,15,52,744.80
2007,07,25,15,53,743.40
2007,07,25,15,54,740.40
2007,07,25,15,55,737.50
2007,07,25,15,56,735.80
2007,07,25,15,57,733.40
2007,07,25,15,58,729.70
2007,07,25,15,59,729.00
2007,07,25,16,00,727.80
2007,07,25,16,01,726.40
2007,07,25,16,02,726.60
2007,07,25,16,03,724.00
2007,07,25,16,04,721.50
2007,07,25,16,05,717.70
2007,07,25,16,06,715.40
2007,07,25,16,07,712.60
2007,07,25,16,08,714.70
2007,07,25,16,09,709.80
2007,07,25,16,10,707.80
2007,07,25,16,11,706.30
2007,07,25,16,12,704.00
2007,07,25,16,13,701.80
2007,07,25,16,14,698.80
2007,07,25,16,15,698.00
2007,07,25,16,16,694.20
2007,07,25,16,17,695.80
2007,07,25,16,18,693.00
2007,07,25,16,19,692.00
2007,07,25,16,20,689.00
2007,07,25,16,21,687.50
2007,07,25,16,22,686.00
2007,07,25,16,23,680.90
2007,07,25,16,24,681.70
2007,07,25,16,25,679.00
2007,07,25,16,26,678.80
2007,07,25,16,27,676.60
2007,07,25,16,28,674.30
2007,07,25,16,29,672.10
2007,07,25,16,30,670.40
2007,07,25,16,31,667.10
2007,07,25,16,32,666.00
2007,07,25,16,33,664.20
2007,07,25,16,34,663.90
2007,07,25,16,35,661.50
2007,07,25,16,36,654.80
2007,07,25,16,37,655.00
2007,07,25,16,38,632.00
2007,07,25,16,39,627.90
2007,07,25,16,40,636.70
2007,07,25,16,41,636.00
2007,07,25,16,42,640.00
2007,07,25,16,43,638.20
2007,07,25,16,44,640.00
2007,07,25,16,45,638.30
2007,07,25,16,46,635.00
2007,07,25,16,47,629.80
2007,07,25,16,48,597.60
2007,07,25,16,49,590.90
2007,07,25,16,50,597.60
2007,07,25,16,51,599.00
2007,07,25,16,52,608.40
2007,07,25,16,53,612.00
2007,07,25,16,54,612.00
2007,07,25,16,55,612.00
2007,07,25,16,56,610.80
2007,07,25,16,57,610.00
2007,07,25,16,58,608.30
2007,07,25,16,59,606.10
2007,07,25,17,00,604.90
2007,07,25,17,01,602.30
2007,07,25,17,02,598.10
2007,07,25,17,03,596.00
2007,07,25,17,04,596.00
2007,07,25,17,05,594.80
2007,07,25,17,06,597.80
2007,07,25,17,07,599.00
2007,07,25,17,08,599.00
2007,07,25,17,09,591.20
2007,07,25,17,10,588.20
2007,07,25,17,11,583.90
2007,07,25,17,12,581.10
2007,07,25,17,13,579.00
2007,07,25,17,14,576.00
2007,07,25,17,15,573.40